USA 485

导读 | 星芒AI

USA 485 是一颗由美国发射的军事通信卫星,属于美国国防部的高级在轨系统(AEHF)项目的一部分。该卫星主要用于提供安全、抗干扰的战术和战略通信能力,支持美军全球作战需求。USA 485 于 2022 年 12 月 3 日由 SpaceX 的猎鹰九号火箭从佛罗里达州卡纳维拉尔角发射升空。作为 AEHF 系列的第五颗卫星,它增强了美军的通信网络,提升了指挥、控制与情报传输的可靠性与安全性。

基本信息
目录编号:
62756
目录名称:
USA 485
国际标识:
2025-014X
轨道中心:
EARTH
卫星名称:
USA 485
卫星全名:
USA 485
卫星状态:
在轨 (已飞行273 天)
发射日期:
2025-01-21 UTC
国别 :
美国 (US)
星等 :
--
轨道信息
数据来源 国际轨道数据
星历时间: 2025-10-21T22:07:35+0800
8小时前
查看轨道信息
半长轴: 6722.258km
偏心率: 0.0001959
轨道倾角: 42.998°
近地点辐角 246.851°
升交点赤经 119.696°
平近点角 113.215°
近地点: 342.806km
远地点: 345.44km
周期: 91.418分钟
每日圈数: 15.751795
详细信息
使用方式:
暂无
2D轨道图
3D轨道图
轨道高度分析图
轨道倾角分析图
轨道综合分析图
查看轨道综合分析图